CW3138 Weather Reports


time (UTC)temp
C
wind
direction
speed
KPH
gust
KPH
rain 1hr
cm
rain 24hr
cm
rain mn
cm
humidity
%
barometer
mb
20260504081535 8 96 0.0 0.0 0.00 0.00 0.00 89 1008.8
20260504050024 11 94 0.0 9.7 0.00 0.00 0.00 73 1010.4
20260504044515 9 105 1.6 9.7 0.00 0.00 0.00 77 1010.8
20260504043013 8 97 0.0 0.0 0.00 0.00 0.00 82 1010.4
20260504041507 8 97 0.0 4.8 0.00 0.00 0.00 81 1010.3
20260504040006 8 97 0.0 0.0 0.00 0.00 0.00 82 1010.3
20260504034506 8 97 0.0 4.8 0.00 0.00 0.00 80 1010.4
20260504033004 9 98 0.0 0.0 0.00 0.00 0.00 79 1010.4
20260504031507 9 98 0.0 0.0 0.00 0.00 0.00 78 1010.5
20260504030004 10 98 0.0 0.0 0.00 0.00 0.00 76 1010.5
20260504024504 9 94 4.8 8.0 0.00 0.00 0.00 75 1010.5
20260504023004 10 117 0.0 0.0 0.00 0.00 0.00 73 1010.7
20260504021503 10 117 0.0 0.0 0.00 0.00 0.00 73 1010.4
20260504020003 11 117 0.0 0.0 0.00 0.00 0.00 69 1010.3
20260504014501 11 117 0.0 0.0 0.00 0.00 0.00 65 1010.3
20260504013101 11 115 0.0 3.2 0.00 0.00 0.00 66 1010.1
20260504011601 11 104 3.2 8.0 0.00 0.00 0.00 62 1010.4
20260504010100 12 106 0.0 0.0 0.00 0.00 0.00 65 1010.7
20260504004559 12 106 0.0 0.0 0.00 0.00 0.00 57 1010.5
20260504003058 13 106 0.0 0.0 0.00 0.00 0.00 56 1010.5
20260504001601 13 106 0.0 0.0 0.00 0.00 0.00 51 1010.4
20260504000101 13 106 0.0 1.6 0.00 0.00 0.00 50 1010.4
20260503234625 15 100 0.0 8.0 0.00 0.00 0.00 51 1010.4
20260503233055 15 75 0.0 3.2 0.00 0.00 0.00 40 1010.4
20260503231555 16 81 0.0 9.7 0.00 0.00 0.00 42 1010.7
20260503230055 16 200 0.0 1.6 0.00 0.00 0.00 40 1011.0
20260503224554 16 190 0.0 4.8 0.00 0.00 0.00 40 1011.0
20260503223053 16 140 0.0 9.7 0.00 0.00 0.00 37 1011.4
20260503221558 16 107 4.8 14.5 0.00 0.00 0.00 38 1011.4
20260503220052 16 155 3.2 19.3 0.00 0.00 0.00 37 1011.4
20260503214551 16 76 6.4 16.1 0.00 0.00 0.00 37 1011.5
20260503213049 17 252 0.0 11.3 0.00 0.00 0.00 39 1011.5
20260503211546 16 174 4.8 20.9 0.00 0.00 0.00 36 1011.5
20260503210045 16 91 9.7 19.3 0.00 0.00 0.00 39 1011.4
20260503204545 16 86 1.6 17.7 0.00 0.00 0.00 41 1011.3
20260503203053 16 69 1.6 14.5 0.00 0.00 0.00 41 1011.6
20260503201541 16 130 1.6 14.5 0.00 0.00 0.00 41 1012.0
20260503200039 16 165 4.8 17.7 0.00 0.00 0.00 42 1012.2
20260503194541 15 75 8.0 17.7 0.00 0.00 0.00 41 1012.6
20260503193035 15 146 3.2 12.9 0.00 0.00 0.00 40 1013.1
20260503191536 15 179 6.4 19.3 0.00 0.00 0.00 39 1013.2
20260503190036 15 157 1.6 24.1 0.00 0.00 0.00 40 1013.4
20260503184531 15 195 1.6 25.7 0.00 0.00 0.00 39 1013.8
20260503183029 15 161 8.0 19.3 0.00 0.00 0.00 41 1013.9
20260503181525 14 296 4.8 19.3 0.00 0.00 0.00 42 1013.9
20260503180026 13 240 8.0 16.1 0.00 0.00 0.00 44 1014.3
20260503174523 13 200 8.0 19.3 0.00 0.00 0.00 44 1014.5
20260503173027 13 151 4.8 20.9 0.00 0.00 0.00 44 1014.7
20260503171519 13 291 3.2 12.9 0.00 0.00 0.00 49 1014.8